Wind_Speed
9 6 4 2 4 7 11 14 17 20 23 24 26 29 31 32 33 34 35 36 36 36 37 36 36 35 35 34 34 35 34 34 34 34 35 35 34 34 34 34 32 31 31
11 10 7 5 2 2 5 8 11 14 17 19 22 25 27 29 31 33 34 35 36 36 37 37 37 38 38 37 36 35 35 34 33 33 34 33 33 32 31 31 30 30 30
14 12 11 9 6 4 2 2 5 9 12 14 17 20 22 24 27 29 30 32 33 34 34 35 35 35 36 36 35 35 34 34 33 32 32 31 30 30 29 28 27 26 25
16 15 14 12 10 8 5 3 2 4 6 9 11 14 16 19 21 23 24 27 29 29 30 31 32 32 32 31 32 32 31 31 31 30 29 28 27 26 25 24 22 21 20
19 18 16 15 13 11 9 7 5 3 3 5 7 9 12 15 17 19 21 22 23 25 26 27 27 28 28 28 27 26 26 26 26 25 25 24 22 21 20 19 18 18 18
20 19 18 17 15 13 12 11 8 7 6 5 6 8 11 13 15 16 18 20 20 21 22 23 24 23 24 25 25 24 22 21 21 21 20 19 17 17 16 16 16 16 16
21 20 20 19 18 16 15 13 12 10 9 9 8 9 10 11 13 15 16 16 17 18 19 19 20 20 21 23 23 22 21 19 18 18 17 17 16 15 15 15 14 14 14
21 21 21 20 19 18 17 16 15 13 12 11 11 11 11 10 11 12 15 15 16 16 18 17 18 19 19 20 19 18 18 18 17 17 17 16 15 14 14 14 13 13 13
21 21 21 20 19 19 18 18 17 16 15 14 14 14 12 11 9 10 12 13 15 16 16 17 17 18 18 18 18 18 17 17 16 16 15 14 14 14 13 13 12 12 12
21 21 21 20 20 19 19 19 19 19 17 17 16 16 14 12 11 10 10 11 13 14 14 15 16 17 18 18 18 18 17 16 15 15 14 14 14 13 13 12 11 11 11
20 20 20 20 20 20 20 20 20 20 19 19 18 18 16 14 12 10 9 8 9 11 12 14 15 16 17 17 17 17 16 15 15 14 14 14 13 12 12 11 10 10 9
20 20 20 21 21 21 21 21 21 21 21 21 20 20 19 17 14 10 6 4 6 8 11 12 14 16 17 17 17 16 15 15 14 14 13 13 12 11 10 10 9 8 8
20 21 21 21 21 21 21 21 21 22 22 22 22 21 20 19 16 12 8 4 2 6 9 11 14 14 16 16 16 15 15 14 14 13 12 12 11 10 9 9 9 8 7
19 20 21 21 21 21 21 21 21 22 22 22 23 22 21 20 19 16 13 8 5 5 7 10 13 14 14 14 15 15 15 14 14 13 12 11 10 9 9 9 8 8 7
19 20 21 21 21 21 21 21 22 22 23 23 23 23 23 22 21 19 17 14 11 9 10 11 13 14 14 14 14 14 13 13 13 12 12 11 10 10 9 9 8 8 7
18 19 20 21 21 21 21 22 22 22 22 23 23 23 23 23 22 21 20 18 16 15 14 15 15 15 14 14 14 13 13 13 13 13 12 11 11 11 10 9 8 8 7
16 17 18 20 21 21 21 21 22 22 22 22 22 23 23 23 22 22 22 20 19 18 17 16 16 15 15 14 14 14 14 14 13 13 12 12 11 11 10 9 9 7 6
14 15 16 18 20 21 21 21 21 21 21 21 22 22 22 23 22 22 22 22 20 19 19 18 17 16 15 15 15 14 14 14 13 13 13 12 11 11 10 9 7 6 5
12 13 14 16 17 19 20 20 21 21 21 21 21 21 21 22 22 22 21 21 21 20 19 18 18 17 16 16 15 14 14 14 14 13 12 12 11 10 9 7 6 6 5
11 11 12 13 15 16 17 19 19 20 20 20 20 20 20 20 20 20 21 20 20 20 19 19 18 17 17 16 16 15 15 14 13 13 12 11 10 9 8 7 6 5 4
10 10 11 11 12 14 15 16 17 17 18 18 18 18 18 18 18 18 19 19 19 18 18 17 17 17 16 16 15 15 14 13 13 12 11 10 9 8 8 7 6 4 3
10 10 10 10 10 11 12 13 14 15 15 16 16 16 16 16 16 16 16 16 16 16 16 16 15 15 15 15 14 14 13 12 12 11 10 9 8 8 7 5 4 2 1
9 9 10 10 10 10 10 10 11 11 12 12 13 13 13 13 13 13 13 13 13 13 13 13 13 13 12 12 12 12 11 11 10 9 8 7 6 5 4 3 2 1 2
9 9 10 10 10 10 9 9 9 9 9 9 9 9 9 9 9 9 9 10 10 10 10 10 10 10 10 9 9 9 8 8 7 6 6 5 4 3 2 1 2 3 4
11 11 10 10 10 10 10 9 9 8 8 7 7 7 6 6 5 5 4 4 5 5 6 6 6 6 6 6 6 6 5 5 4 4 3 2 1 1 2 3 4 6 7
14 14 13 12 12 11 11 11 10 10 9 8 8 7 6 6 5 4 3 3 2 1 1 1 1 2 2 2 2 3 3 3 3 2 2 3 3 4 5 7 8 9 10
Wind_Direction
30 26 10 305 258 243 239 238 238 238 240 241 242 242 242 243 244 245 246 248 249 250 251 251 251 252 253 253 254 254 255 252 252 251 252 256 259 258 259 260 259 260 260
36 37 33 26 1 280 249 242 239 239 240 242 243 244 244 244 245 246 246 247 249 250 251 251 251 252 252 252 254 254 254 255 254 253 253 255 256 256 256 259 260 259 258
39 38 39 39 39 33 11 267 249 244 243 245 245 244 245 245 246 247 247 248 248 249 248 248 249 250 248 250 251 252 252 253 252 251 252 253 254 253 256 257 257 258 255
42 42 43 42 44 44 43 29 330 272 255 253 252 252 250 249 248 248 247 248 247 246 246 246 246 246 246 246 246 248 248 248 248 248 248 249 250 251 252 251 251 251 250
44 43 42 42 43 44 42 36 24 4 314 283 272 266 262 256 252 249 247 246 243 243 244 244 245 243 241 241 240 241 241 241 241 241 242 244 244 243 242 240 240 241 244
44 44 44 45 46 46 43 37 29 20 5 336 308 292 281 269 260 255 252 248 244 242 241 240 237 234 234 235 235 234 235 233 232 232 231 231 232 231 230 231 234 237 242
45 45 45 46 46 45 41 35 28 20 11 359 342 322 304 286 269 261 256 253 249 241 235 233 231 228 228 229 226 223 223 221 221 221 219 220 221 221 222 225 231 238 244
44 44 44 44 42 40 36 32 26 19 12 3 352 340 324 304 283 269 261 257 251 244 235 228 225 221 219 217 214 214 214 213 212 212 212 213 215 217 222 227 232 238 244
42 42 41 40 39 37 34 31 27 21 15 8 1 352 342 326 306 285 269 260 253 242 233 227 222 217 214 211 209 209 209 209 208 209 212 214 218 222 226 230 234 240 244
39 38 37 37 35 34 32 29 26 22 18 12 6 0 353 342 325 305 284 267 251 241 231 223 217 211 207 208 208 205 205 207 207 209 211 215 217 220 226 231 234 238 243
35 34 34 33 33 31 29 27 25 21 18 14 10 5 0 353 342 325 302 271 244 235 227 218 211 206 205 205 204 204 204 206 207 208 210 213 217 221 224 228 231 233 236
33 32 31 31 30 29 27 25 23 20 18 16 14 12 10 7 1 352 335 288 235 222 217 212 206 202 201 200 201 202 201 202 201 203 207 210 213 217 219 220 223 223 225
32 30 30 29 28 27 26 24 23 21 20 19 18 17 18 18 18 17 15 8 199 198 197 196 193 191 193 191 190 192 194 196 196 197 200 201 203 205 207 207 206 204 203
30 29 29 28 28 27 25 25 24 23 23 23 23 24 25 28 30 34 37 48 81 137 165 173 176 177 178 180 181 182 184 185 186 187 189 191 193 192 192 190 188 186 188
28 28 28 28 28 27 27 26 27 27 27 28 29 31 33 36 38 42 48 58 74 100 127 145 153 159 164 167 169 173 175 177 177 178 179 181 183 182 180 178 175 173 171
26 27 27 27 27 27 28 28 29 30 31 32 33 35 38 41 44 49 56 64 75 91 108 124 135 143 149 154 158 161 165 168 168 167 167 169 169 167 164 162 161 161 160
23 24 25 26 27 28 29 30 31 33 35 36 37 39 42 45 48 52 58 67 77 87 98 109 120 129 136 141 145 149 152 153 153 155 156 158 158 157 156 155 154 154 154
21 22 24 25 27 28 30 31 33 34 36 39 41 42 44 48 52 56 61 68 77 85 92 100 109 118 125 130 133 137 140 143 146 148 149 150 150 151 151 151 153 154 154
16 18 21 23 25 27 29 31 33 35 37 40 43 45 48 50 54 58 64 69 75 82 89 96 103 110 117 122 127 130 134 136 139 141 143 144 145 146 147 148 149 150 149
10 13 16 19 22 25 27 30 32 35 37 40 43 47 50 53 57 61 65 70 75 81 86 92 98 104 110 116 120 124 128 131 134 136 138 140 141 142 143 143 144 145 144
0 4 7 11 15 20 23 26 29 32 35 38 42 46 50 54 58 62 66 70 75 80 85 90 95 100 105 110 115 119 123 127 130 132 133 135 137 138 140 142 143 142 138
352 353 356 360 4 9 15 20 24 28 32 36 40 44 48 53 57 61 65 70 75 80 85 91 96 100 104 108 112 116 119 122 125 127 130 132 135 137 140 141 142 145 162
336 341 345 347 351 355 360 6 12 18 23 29 34 39 44 49 54 58 62 67 73 79 84 90 95 100 104 108 112 115 119 122 126 129 133 136 139 141 144 151 169 231 282
317 324 329 332 336 340 343 347 352 358 5 12 19 26 33 40 47 53 58 64 71 77 83 89 95 100 106 111 116 120 123 126 129 133 136 140 144 150 166 210 263 287 297
299 304 310 316 319 321 325 329 332 336 339 342 348 356 4 13 21 30 41 53 66 78 87 93 98 104 110 116 122 127 131 135 138 142 147 157 184 232 270 285 295 301 303
287 291 295 299 303 305 307 309 311 313 316 317 317 316 318 320 322 321 316 309 303 285 220 174 163 159 161 167 174 180 185 192 198 213 235 258 274 284 291 295 298 300 301
Height
5776 5774 5773 5772 5772 5772 5773 5774 5776 5778 5780 5782 5784 5786 5788 5791 5794 5796 5798 5801 5803 5805 5807 5809 5811 5812 5814 5816 5817 5819 5820 5822 5823 5825 5827 5828 5830 5831 5832 5833 5834 5835 5835
5778 5776 5774 5773 5772 5772 5772 5772 5773 5774 5775 5777 5778 5780 5782 5784 5786 5788 5790 5791 5793 5795 5797 5799 5801 5803 5805 5807 5809 5810 5812 5813 5815 5816 5818 5820 5821 5823 5824 5825 5826 5827 5828
5781 5778 5776 5774 5773 5772 5772 5771 5771 5772 5772 5773 5774 5775 5776 5777 5778 5780 5781 5783 5784 5786 5788 5789 5791 5793 5796 5798 5800 5802 5803 5805 5807 5808 5810 5812 5813 5815 5816 5818 5819 5820 5820
5784 5781 5778 5776 5775 5773 5773 5772 5771 5771 5771 5771 5771 5771 5771 5772 5772 5773 5774 5775 5776 5777 5779 5780 5782 5784 5787 5789 5791 5793 5795 5797 5799 5801 5803 5804 5806 5808 5810 5811 5813 5814 5815
5787 5784 5782 5779 5777 5775 5774 5773 5771 5770 5769 5769 5768 5768 5767 5767 5767 5767 5767 5768 5769 5770 5771 5772 5774 5777 5779 5781 5784 5786 5788 5790 5792 5794 5796 5798 5800 5802 5804 5806 5808 5810 5811
5791 5788 5785 5782 5780 5778 5776 5774 5772 5770 5769 5767 5766 5765 5763 5762 5761 5761 5761 5761 5762 5763 5764 5766 5768 5770 5772 5775 5777 5780 5782 5784 5786 5788 5790 5793 5795 5797 5800 5802 5804 5806 5807
5795 5792 5788 5785 5783 5780 5778 5775 5773 5771 5768 5766 5764 5761 5759 5757 5756 5755 5755 5756 5756 5757 5758 5760 5762 5764 5766 5769 5771 5774 5777 5779 5782 5784 5786 5789 5791 5794 5796 5798 5801 5802 5804
5799 5795 5792 5789 5786 5783 5780 5777 5774 5771 5768 5765 5762 5759 5756 5753 5751 5751 5751 5751 5751 5752 5753 5755 5757 5759 5761 5764 5767 5770 5772 5775 5778 5781 5783 5786 5788 5791 5793 5796 5797 5799 5801
5803 5799 5796 5792 5789 5785 5782 5778 5775 5771 5768 5764 5761 5757 5753 5750 5748 5746 5745 5745 5746 5746 5748 5749 5752 5754 5757 5760 5763 5766 5769 5772 5775 5778 5781 5783 5786 5788 5791 5793 5795 5796 5798
5806 5803 5799 5795 5792 5788 5784 5780 5776 5772 5768 5764 5760 5756 5752 5748 5745 5742 5741 5740 5740 5741 5743 5744 5746 5749 5753 5756 5759 5763 5766 5769 5772 5775 5778 5781 5784 5786 5788 5790 5792 5794 5795
5810 5806 5802 5798 5794 5791 5787 5783 5778 5774 5769 5765 5760 5755 5750 5746 5742 5739 5737 5736 5736 5737 5738 5740 5743 5746 5749 5753 5757 5760 5764 5767 5770 5773 5776 5779 5781 5784 5786 5788 5789 5791 5793
5813 5809 5805 5801 5797 5793 5789 5785 5780 5776 5771 5766 5760 5755 5750 5745 5740 5736 5734 5733 5733 5734 5736 5738 5740 5743 5747 5751 5755 5758 5762 5766 5769 5772 5775 5777 5780 5782 5784 5786 5787 5789 5790
5816 5812 5808 5804 5800 5796 5792 5787 5783 5778 5773 5767 5762 5756 5751 5745 5740 5736 5733 5731 5731 5732 5734 5736 5739 5742 5746 5750 5754 5757 5761 5765 5768 5771 5774 5776 5778 5780 5782 5784 5786 5787 5788
5819 5815 5811 5807 5803 5798 5794 5790 5785 5780 5775 5770 5764 5758 5753 5748 5743 5739 5735 5732 5731 5731 5732 5735 5738 5742 5746 5749 5753 5757 5761 5764 5767 5770 5773 5775 5777 5779 5781 5783 5785 5786 5787
5821 5817 5813 5809 5805 5801 5797 5792 5788 5783 5778 5773 5768 5762 5757 5752 5747 5743 5739 5736 5734 5734 5734 5737 5740 5744 5747 5751 5754 5758 5761 5764 5767 5770 5773 5775 5777 5779 5781 5782 5784 5786 5787
5824 5820 5816 5812 5808 5804 5800 5796 5791 5787 5782 5777 5772 5767 5762 5758 5753 5749 5745 5742 5739 5739 5739 5741 5744 5747 5750 5753 5757 5760 5763 5766 5768 5771 5773 5775 5778 5779 5781 5783 5784 5786 5787
5826 5823 5819 5815 5812 5807 5803 5799 5795 5791 5786 5782 5777 5773 5768 5764 5760 5756 5752 5749 5747 5746 5747 5748 5749 5752 5755 5757 5760 5762 5765 5768 5770 5772 5774 5777 5779 5780 5782 5784 5785 5786 5787
5828 5825 5822 5818 5815 5811 5807 5803 5799 5794 5790 5787 5782 5778 5774 5770 5767 5763 5760 5758 5756 5755 5754 5755 5756 5757 5759 5761 5764 5766 5768 5770 5772 5774 5776 5778 5780 5782 5783 5785 5786 5787 5788
5829 5826 5823 5820 5817 5814 5810 5806 5802 5799 5795 5791 5787 5784 5780 5777 5774 5771 5768 5766 5764 5763 5762 5762 5762 5763 5765 5766 5768 5770 5772 5773 5775 5777 5779 5781 5782 5784 5785 5786 5787 5788 5788
5829 5827 5825 5822 5819 5816 5813 5810 5806 5803 5799 5796 5792 5789 5786 5783 5781 5778 5776 5774 5772 5770 5770 5769 5769 5770 5770 5771 5773 5774 5775 5777 5778 5780 5781 5783 5784 5785 5786 5787 5788 5788 5789
5830 5827 5825 5823 5821 5818 5815 5812 5809 5806 5803 5800 5797 5794 5791 5789 5787 5784 5782 5780 5779 5778 5777 5776 5776 5776 5776 5777 5777 5778 5779 5780 5781 5783 5784 5785 5786 5787 5787 5788 5788 5789 5788
5829 5827 5825 5823 5821 5819 5816 5814 5812 5809 5806 5804 5801 5799 5796 5794 5792 5790 5788 5787 5785 5784 5783 5782 5782 5782 5782 5782 5782 5783 5783 5784 5785 5785 5786 5787 5787 5788 5788 5788 5788 5788 5788
5828 5826 5824 5822 5821 5819 5817 5815 5813 5811 5808 5806 5804 5802 5800 5798 5796 5795 5793 5791 5790 5789 5788 5787 5787 5787 5786 5786 5786 5786 5787 5787 5787 5788 5788 5788 5788 5789 5789 5788 5788 5788 5787
5826 5824 5823 5821 5819 5818 5816 5814 5813 5811 5809 5808 5806 5804 5802 5801 5799 5798 5797 5795 5794 5793 5792 5791 5791 5790 5790 5790 5789 5789 5789 5789 5789 5789 5789 5789 5789 5789 5788 5788 5787 5786 5785
5822 5821 5820 5819 5817 5816 5815 5813 5812 5810 5809 5807 5806 5805 5803 5802 5801 5800 5799 5798 5797 5796 5795 5794 5793 5793 5792 5792 5792 5791 5791 5791 5790 5790 5790 5789 5789 5788 5788 5787 5786 5785 5783
5818 5817 5816 5815 5814 5813 5812 5811 5810 5808 5807 5806 5805 5803 5802 5801 5800 5800 5799 5798 5797 5797 5796 5795 5794 5794 5793 5793 5792 5792 5791 5791 5790 5790 5789 5788 5788 5787 5786 5785 5784 5782 5781